Time,TemperatureF,DewpointF,PressureIn,WindDirection,WindDirectionDegrees,WindSpeedMPH,WindSpeedGustMPH,Humidity,HourlyPrecipIn,Conditions,Clouds,dailyrainin,SolarRadiationWatts/m^2,SoftwareType,DateUTC
2013-02-25 00:01:00,23.0,19.0,-100.00,NE,40,3.0,6.0,84,0.00,,,0.00,0.000000,,2013-02-25 05:01:00,
2013-02-25 00:32:00,23.0,19.0,-100.00,NE,40,3.0,6.0,84,0.00,,,0.00,0.000000,,2013-02-25 05:32:00,
2013-02-25 00:42:00,23.0,19.0,-100.00,NE,40,3.0,6.0,84,0.00,,,0.00,0.000000,,2013-02-25 05:42:00,
2013-02-25 00:52:00,23.0,19.0,-100.00,NE,40,3.0,6.0,84,0.00,,,0.00,0.000000,,2013-02-25 05:52:00,
2013-02-25 01:01:00,22.0,17.0,-100.00,NE,45,5.0,7.0,82,0.00,,,0.00,0.000000,,2013-02-25 06:01:00,
2013-02-25 01:32:00,22.0,17.0,-100.00,NE,45,5.0,7.0,82,0.00,,,0.00,0.000000,,2013-02-25 06:32:00,
2013-02-25 01:42:00,22.0,17.0,-100.00,NE,45,5.0,7.0,82,0.00,,,0.00,0.000000,,2013-02-25 06:42:00,
2013-02-25 01:52:00,22.0,17.0,-100.00,NE,45,5.0,7.0,82,0.00,,,0.00,0.000000,,2013-02-25 06:52:00,
2013-02-25 02:01:00,22.0,15.0,-100.00,NE,45,7.0,9.0,74,0.00,,,0.00,0.000000,,2013-02-25 07:01:00,
2013-02-25 02:32:00,22.0,15.0,-100.00,NE,45,7.0,9.0,74,0.00,,,0.00,0.000000,,2013-02-25 07:32:00,
2013-02-25 02:42:00,22.0,15.0,-100.00,NE,45,7.0,9.0,74,0.00,,,0.00,0.000000,,2013-02-25 07:42:00,
2013-02-25 02:52:00,22.0,15.0,-100.00,NE,45,7.0,9.0,74,0.00,,,0.00,0.000000,,2013-02-25 07:52:00,
2013-02-25 03:01:00,20.0,13.0,-100.00,NE,41,4.0,9.0,75,0.00,,,0.00,0.000000,,2013-02-25 08:01:00,
2013-02-25 03:32:00,20.0,13.0,-100.00,NE,41,4.0,9.0,75,0.00,,,0.00,0.000000,,2013-02-25 08:32:00,
2013-02-25 03:42:00,20.0,13.0,-100.00,NE,41,4.0,9.0,75,0.00,,,0.00,0.000000,,2013-02-25 08:42:00,
2013-02-25 03:52:00,20.0,13.0,-100.00,NE,41,4.0,9.0,75,0.00,,,0.00,0.000000,,2013-02-25 08:52:00,
2013-02-25 04:01:00,19.0,13.0,-100.00,NE,52,4.0,6.0,78,0.00,,,0.00,0.000000,,2013-02-25 09:01:00,
2013-02-25 04:32:00,19.0,13.0,-100.00,NE,52,4.0,6.0,78,0.00,,,0.00,0.000000,,2013-02-25 09:32:00,
2013-02-25 04:42:00,19.0,13.0,-100.00,NE,52,4.0,6.0,78,0.00,,,0.00,0.000000,,2013-02-25 09:42:00,
2013-02-25 04:52:00,19.0,13.0,-100.00,NE,52,4.0,6.0,78,0.00,,,0.00,0.000000,,2013-02-25 09:52:00,
2013-02-25 05:01:00,19.0,12.0,-100.00,ENE,60,3.0,5.0,75,0.00,,,0.00,0.000000,,2013-02-25 10:01:00,
2013-02-25 05:21:00,19.0,12.0,-100.00,ENE,60,3.0,5.0,75,0.00,,,0.00,0.000000,,2013-02-25 10:21:00,
2013-02-25 05:32:00,19.0,12.0,-100.00,ENE,60,3.0,5.0,75,0.00,,,0.00,0.000000,,2013-02-25 10:32:00,
2013-02-25 05:42:00,19.0,12.0,-100.00,ENE,60,3.0,5.0,75,0.00,,,0.00,0.000000,,2013-02-25 10:42:00,
2013-02-25 05:52:00,19.0,12.0,-100.00,ENE,60,3.0,5.0,75,0.00,,,0.00,0.000000,,2013-02-25 10:52:00,
2013-02-25 06:01:00,19.0,13.0,-100.00,NE,52,4.0,5.0,76,0.00,,,0.00,0.000000,,2013-02-25 11:01:00,
2013-02-25 06:22:00,19.0,13.0,-100.00,NE,52,4.0,5.0,76,0.00,,,0.00,0.000000,,2013-02-25 11:22:00,
2013-02-25 06:32:00,19.0,13.0,-100.00,NE,52,4.0,5.0,76,0.00,,,0.00,0.000000,,2013-02-25 11:32:00,
2013-02-25 06:42:00,19.0,13.0,-100.00,NE,52,4.0,5.0,76,0.00,,,0.00,0.000000,,2013-02-25 11:42:00,
2013-02-25 06:52:00,19.0,13.0,-100.00,NE,52,4.0,5.0,76,0.00,,,0.00,0.000000,,2013-02-25 11:52:00,
2013-02-25 07:01:00,19.0,14.0,-100.00,NE,52,6.0,7.0,79,0.00,,,0.00,1.000000,,2013-02-25 12:01:00,
2013-02-25 07:22:00,19.0,14.0,-100.00,NE,52,6.0,7.0,79,0.00,,,0.00,1.000000,,2013-02-25 12:22:00,
2013-02-25 07:32:00,19.0,14.0,-100.00,NE,52,6.0,7.0,79,0.00,,,0.00,1.000000,,2013-02-25 12:32:00,
2013-02-25 07:42:00,19.0,14.0,-100.00,NE,52,6.0,7.0,79,0.00,,,0.00,1.000000,,2013-02-25 12:42:00,
2013-02-25 07:56:00,19.0,14.0,-100.00,NE,52,6.0,7.0,79,0.00,,,0.00,1.000000,,2013-02-25 12:56:00,
2013-02-25 08:01:00,20.0,14.0,-100.00,NE,49,7.0,10.0,77,0.00,,,0.00,47.000000,,2013-02-25 13:01:00,
2013-02-25 08:23:00,20.0,14.0,-100.00,NE,49,7.0,10.0,77,0.00,,,0.00,47.000000,,2013-02-25 13:23:00,
2013-02-25 08:32:00,20.0,14.0,-100.00,NE,49,7.0,10.0,77,0.00,,,0.00,47.000000,,2013-02-25 13:32:00,
2013-02-25 08:42:00,20.0,14.0,-100.00,NE,49,7.0,10.0,77,0.00,,,0.00,47.000000,,2013-02-25 13:42:00,
2013-02-25 08:52:00,20.0,14.0,-100.00,NE,49,7.0,10.0,77,0.00,,,0.00,47.000000,,2013-02-25 13:52:00,
2013-02-25 09:01:00,23.0,17.0,-100.00,SW,231,3.0,8.0,78,0.00,,,0.00,209.000000,,2013-02-25 14:01:00,
2013-02-25 09:32:00,23.0,17.0,-100.00,SW,231,3.0,8.0,78,0.00,,,0.00,209.000000,,2013-02-25 14:32:00,
2013-02-25 09:42:00,23.0,17.0,-100.00,SW,231,3.0,8.0,78,0.00,,,0.00,209.000000,,2013-02-25 14:42:00,
2013-02-25 09:52:00,23.0,17.0,-100.00,SW,231,3.0,8.0,78,0.00,,,0.00,209.000000,,2013-02-25 14:52:00,
2013-02-25 10:01:00,26.0,16.0,-100.00,SSW,212,4.0,8.0,65,0.00,,,0.00,377.000000,,2013-02-25 15:01:00,
2013-02-25 10:22:00,26.0,16.0,-100.00,SSW,212,4.0,8.0,65,0.00,,,0.00,377.000000,,2013-02-25 15:22:00,
2013-02-25 10:32:00,26.0,16.0,-100.00,SSW,212,4.0,8.0,65,0.00,,,0.00,377.000000,,2013-02-25 15:32:00,
2013-02-25 10:42:00,26.0,16.0,-100.00,SSW,212,4.0,8.0,65,0.00,,,0.00,377.000000,,2013-02-25 15:42:00,
2013-02-25 10:52:00,26.0,16.0,-100.00,SSW,212,4.0,8.0,65,0.00,,,0.00,377.000000,,2013-02-25 15:52:00,
2013-02-25 11:01:00,30.0,15.0,-100.00,WSW,239,4.0,7.0,52,0.00,,,0.00,536.000000,,2013-02-25 16:01:00,
2013-02-25 11:32:00,30.0,15.0,-100.00,WSW,239,4.0,7.0,52,0.00,,,0.00,536.000000,,2013-02-25 16:32:00,
2013-02-25 11:42:00,30.0,15.0,-100.00,WSW,239,4.0,7.0,52,0.00,,,0.00,536.000000,,2013-02-25 16:42:00,
2013-02-25 11:52:00,30.0,15.0,-100.00,WSW,239,4.0,7.0,52,0.00,,,0.00,536.000000,,2013-02-25 16:52:00,
2013-02-25 12:01:00,33.0,15.0,-100.00,SW,235,5.0,7.0,47,0.00,,,0.00,613.000000,,2013-02-25 17:01:00,
2013-02-25 12:32:00,33.0,15.0,-100.00,SW,235,5.0,7.0,47,0.00,,,0.00,613.000000,,2013-02-25 17:32:00,
2013-02-25 12:42:00,33.0,15.0,-100.00,SW,235,5.0,7.0,47,0.00,,,0.00,613.000000,,2013-02-25 17:42:00,
2013-02-25 12:52:00,33.0,15.0,-100.00,SW,235,5.0,7.0,47,0.00,,,0.00,613.000000,,2013-02-25 17:52:00,
2013-02-25 13:01:00,36.0,15.0,-100.00,SSW,206,4.0,7.0,42,0.00,,,0.00,626.000000,,2013-02-25 18:01:00,
2013-02-25 13:33:00,36.0,15.0,-100.00,SSW,206,4.0,7.0,42,0.00,,,0.00,626.000000,,2013-02-25 18:33:00,
2013-02-25 13:42:00,36.0,15.0,-100.00,SSW,206,4.0,7.0,42,0.00,,,0.00,626.000000,,2013-02-25 18:42:00,
2013-02-25 13:52:00,36.0,15.0,-100.00,SSW,206,4.0,7.0,42,0.00,,,0.00,626.000000,,2013-02-25 18:52:00,
2013-02-25 14:01:00,39.0,16.0,-100.00,SSW,200,5.0,10.0,38,0.00,,,0.00,669.000000,,2013-02-25 19:01:00,
2013-02-25 14:32:00,39.0,16.0,-100.00,SSW,200,5.0,10.0,38,0.00,,,0.00,669.000000,,2013-02-25 19:32:00,
2013-02-25 14:42:00,39.0,16.0,-100.00,SSW,200,5.0,10.0,38,0.00,,,0.00,669.000000,,2013-02-25 19:42:00,
2013-02-25 14:52:00,39.0,16.0,-100.00,SSW,200,5.0,10.0,38,0.00,,,0.00,669.000000,,2013-02-25 19:52:00,
2013-02-25 15:01:00,42.0,16.0,-100.00,WSW,254,4.0,9.0,34,0.00,,,0.00,601.000000,,2013-02-25 20:01:00,
2013-02-25 15:22:00,42.0,16.0,-100.00,WSW,254,4.0,9.0,34,0.00,,,0.00,601.000000,,2013-02-25 20:22:00,
2013-02-25 15:32:00,42.0,16.0,-100.00,WSW,254,4.0,9.0,34,0.00,,,0.00,601.000000,,2013-02-25 20:32:00,
2013-02-25 15:42:00,42.0,16.0,-100.00,WSW,254,4.0,9.0,34,0.00,,,0.00,601.000000,,2013-02-25 20:42:00,
2013-02-25 15:52:00,42.0,16.0,-100.00,WSW,254,4.0,9.0,34,0.00,,,0.00,601.000000,,2013-02-25 20:52:00,
2013-02-25 16:01:00,42.0,15.0,-100.00,South,187,5.0,10.0,33,0.00,,,0.00,597.000000,,2013-02-25 21:01:00,
2013-02-25 16:32:00,42.0,15.0,-100.00,South,187,5.0,10.0,33,0.00,,,0.00,597.000000,,2013-02-25 21:32:00,
2013-02-25 16:42:00,42.0,15.0,-100.00,South,187,5.0,10.0,33,0.00,,,0.00,597.000000,,2013-02-25 21:42:00,
2013-02-25 16:52:00,42.0,15.0,-100.00,South,187,5.0,10.0,33,0.00,,,0.00,597.000000,,2013-02-25 21:52:00,
2013-02-25 17:01:00,41.0,15.0,-100.00,SSE,154,3.0,10.0,34,0.00,,,0.00,377.000000,,2013-02-25 22:01:00,
2013-02-25 17:32:00,41.0,15.0,-100.00,SSE,154,3.0,10.0,34,0.00,,,0.00,377.000000,,2013-02-25 22:32:00,
2013-02-25 17:42:00,41.0,15.0,-100.00,SSE,154,3.0,10.0,34,0.00,,,0.00,377.000000,,2013-02-25 22:42:00,
2013-02-25 17:52:00,41.0,15.0,-100.00,SSE,154,3.0,10.0,34,0.00,,,0.00,377.000000,,2013-02-25 22:52:00,
2013-02-25 18:01:00,35.0,15.0,-100.00,South,191,5.0,10.0,43,0.00,,,0.00,151.000000,,2013-02-25 23:01:00,
2013-02-25 18:32:00,35.0,15.0,-100.00,South,191,5.0,10.0,43,0.00,,,0.00,151.000000,,2013-02-25 23:32:00,
2013-02-25 18:42:00,35.0,15.0,-100.00,South,191,5.0,10.0,43,0.00,,,0.00,151.000000,,2013-02-25 23:42:00,
2013-02-25 18:52:00,35.0,15.0,-100.00,South,191,5.0,10.0,43,0.00,,,0.00,151.000000,,2013-02-25 23:52:00,
2013-02-25 19:01:00,31.0,15.0,-100.00,SSW,193,9.0,14.0,50,0.00,,,0.00,3.000000,,2013-02-26 00:01:00,
2013-02-25 19:22:00,31.0,15.0,-100.00,SSW,193,9.0,14.0,50,0.00,,,0.00,3.000000,,2013-02-26 00:22:00,
2013-02-25 19:32:00,31.0,15.0,-100.00,SSW,193,9.0,14.0,50,0.00,,,0.00,3.000000,,2013-02-26 00:32:00,
2013-02-25 19:42:00,31.0,15.0,-100.00,SSW,193,9.0,14.0,50,0.00,,,0.00,3.000000,,2013-02-26 00:42:00,
2013-02-25 19:52:00,31.0,15.0,-100.00,SSW,193,9.0,14.0,50,0.00,,,0.00,3.000000,,2013-02-26 00:52:00,
2013-02-25 20:01:00,30.0,15.0,-100.00,SSW,193,9.0,15.0,54,0.00,,,0.00,0.000000,,2013-02-26 01:01:00,
2013-02-25 20:32:00,30.0,15.0,-100.00,SSW,193,9.0,15.0,54,0.00,,,0.00,0.000000,,2013-02-26 01:32:00,
2013-02-25 20:42:00,30.0,15.0,-100.00,SSW,193,9.0,15.0,54,0.00,,,0.00,0.000000,,2013-02-26 01:42:00,
2013-02-25 20:52:00,30.0,15.0,-100.00,SSW,193,9.0,15.0,54,0.00,,,0.00,0.000000,,2013-02-26 01:52:00,
2013-02-25 21:01:00,29.0,15.0,-100.00,South,186,5.0,12.0,55,0.00,,,0.00,0.000000,,2013-02-26 02:01:00,
2013-02-25 21:32:00,29.0,15.0,-100.00,South,186,5.0,12.0,55,0.00,,,0.00,0.000000,,2013-02-26 02:32:00,
2013-02-25 21:42:00,29.0,15.0,-100.00,South,186,5.0,12.0,55,0.00,,,0.00,0.000000,,2013-02-26 02:42:00,
2013-02-25 21:52:00,29.0,15.0,-100.00,South,186,5.0,12.0,55,0.00,,,0.00,0.000000,,2013-02-26 02:52:00,
2013-02-25 22:01:00,27.0,15.0,-100.00,South,175,4.0,12.0,59,0.00,,,0.00,0.000000,,2013-02-26 03:01:00,
2013-02-25 22:22:00,27.0,15.0,-100.00,South,175,4.0,12.0,59,0.00,,,0.00,0.000000,,2013-02-26 03:22:00,
2013-02-25 22:32:00,27.0,15.0,-100.00,South,175,4.0,12.0,59,0.00,,,0.00,0.000000,,2013-02-26 03:32:00,
2013-02-25 22:42:00,27.0,15.0,-100.00,South,175,4.0,12.0,59,0.00,,,0.00,0.000000,,2013-02-26 03:42:00,
2013-02-25 22:52:00,27.0,15.0,-100.00,South,175,4.0,12.0,59,0.00,,,0.00,0.000000,,2013-02-26 03:52:00,
2013-02-25 23:01:00,27.0,16.0,-100.00,SSW,205,5.0,11.0,62,0.00,,,0.00,0.000000,,2013-02-26 04:01:00,
2013-02-25 23:32:00,27.0,16.0,-100.00,SSW,205,5.0,11.0,62,0.00,,,0.00,0.000000,,2013-02-26 04:32:00,
2013-02-25 23:42:00,27.0,16.0,-100.00,SSW,205,5.0,11.0,62,0.00,,,0.00,0.000000,,2013-02-26 04:42:00,
2013-02-25 23:52:00,27.0,16.0,-100.00,SSW,205,5.0,11.0,62,0.00,,,0.00,0.000000,,2013-02-26 04:52:00,